Tracking 19795 objects as of 17-Jul-2019
HD Live streaming from Space Station
objects crossing your sky now

FENGYUN 1C DEB

Track FENGYUN 1C DEB now!
10-day predictions


NORAD ID: 37901
Int'l Code: 1999-025ENA
Perigee: 572.5 km
Apogee: 755.8 km
Inclination: 97.9 °
Period: 97.9 minutes
Semi major axis: 7035 km
RCS: 0.0035 m2 (small)
Launch date: May 10, 1999
Source: People's Republic of China (PRC)
Launch site: Taiyaun Space Center, China (TSC)

Note: This is SATELLITE DEBRIS
aabbcc
Your satellite tracking list
Your tracking list is empty




NASA's NSSDC Master Catalog

Two Line Element Set (TLE):
1 37901U 99025ENA 19180.49516330  .00001952  00000-0  28464-3 0  9999
2 37901  97.9201 269.5302 0130313 138.5518 222.5664 14.71270216509461
Source of the keplerian elements: AFSPC